Aurora, CO

3:25 PM MST on February 08, 2016 (GMT -0700)
Denver International

Weather History for KDEN - August, 2013

Change the Weather History Date:

Thursday, August 1, 2013

  Actual Average Record
Temperature  
Mean Temperature 79 °F 75 °F  
Max Temperature 95 °F 90 °F 104 °F (2008)
Min Temperature 62 °F 60 °F 42 °F (1995)
Degree Days  
Heating Degree Days 0 0  
Month to date heating degree days 0 0  
Since 1 June heating degree days 29 68  
Since 1 July heating degree days 0 6  
Cooling Degree Days 14 10  
Month to date cooling degree days 14 10  
Year to date cooling degree days 572 454  
Since 1 June cooling degree days 530 432  
Growing Degree Days 29 (Base 50)    
Moisture  
Dew Point 50 °F    
Average Humidity 49    
Maximum Humidity 84    
Minimum Humidity 13    
Precipitation  
Precipitation 0.00 in 0.07 in 1.71 in (1976)
Month to date precipitation 0.00 0.07  
Year to date precipitation 7.97 9.74  
Snow  
Snow 0.00 in - - ()
Month to date snowfall 0  
Since 1 June snowfall 0  
Since 1 July snowfall 0  
Snow Depth 0.00 in    
Sea Level Pressure  
Sea Level Pressure 29.88 in    
Wind  
Wind Speed 11 mph (SSW)    
Max Wind Speed 31 mph    
Max Gust Speed 39 mph    
Visibility 10 miles    
Events Thunderstorm    
T = Trace of Precipitation, MM = Missing Value Source: NWS Daily Summary

Daily Weather History Graph

Daily Weather History Graph

Search for Another Location

Airport or City:

Trip Planner

Search our weather history database for the weather conditions in past years. The results will help you decide how hot, cold, wet, or windy it might be!

Date:

Astronomy

Aug. 01, 2013 Rise Set
Actual Time 5:57 AM MDT 8:11 PM MDT
Civil Twilight 5:27 AM MDT 8:41 PM MDT
Nautical Twilight 4:50 AM MDT 9:18 PM MDT
Astronomical Twilight 4:09 AM MDT 9:59 PM MDT
Moon 1:35 AM MDT (8/1) 4:22 PM MDT (8/1)
Length of Visible Light 15h 14m
Length of Day
14h 14m
Waning Crescent, 23% of the Moon is Illuminated
Aug 1
Waning Crescent
Aug 6
New
Aug 14
First Quarter
Aug 20
Full
Aug 28
Last Quarter

Hourly Weather History & Observations

Time (MDT) Temp. Heat Index Dew Point Humidity Pressure Visibility Wind Dir Wind Speed Gust Speed Precip Events Conditions
12:53 AM 66.9 °F - 55.9 °F 68% 30.01 in 10.0 mi South 20.7 mph 32.2 mph N/A   Scattered Clouds
1:53 AM 64.9 °F - 55.9 °F 73% 30.01 in 10.0 mi South 15.0 mph 25.3 mph N/A   Scattered Clouds
2:53 AM 64.0 °F - 57.0 °F 78% 29.99 in 10.0 mi SSE 15.0 mph 27.6 mph N/A   Scattered Clouds
3:53 AM 63.0 °F - 55.9 °F 78% 29.98 in 10.0 mi South 15.0 mph - N/A   Scattered Clouds
4:53 AM 62.1 °F - 55.9 °F 80% 29.96 in 10.0 mi South 12.7 mph - N/A   Scattered Clouds
5:53 AM 63.0 °F - 57.0 °F 81% 29.96 in 10.0 mi South 12.7 mph - N/A   Scattered Clouds
6:53 AM 66.0 °F - 55.9 °F 70% 29.93 in 10.0 mi SSW 13.8 mph - N/A   Scattered Clouds
7:53 AM 70.0 °F - 55.9 °F 61% 29.95 in 10.0 mi SW 13.8 mph - N/A   Mostly Cloudy
8:53 AM 75.0 °F - 55.0 °F 50% 29.93 in 10.0 mi WSW 12.7 mph - N/A   Mostly Cloudy
9:53 AM 81.0 °F 80.4 °F 53.1 °F 38% 29.90 in 10.0 mi WSW 9.2 mph - N/A   Mostly Cloudy
10:53 AM 82.0 °F - 51.1 °F 34% 29.89 in 10.0 mi SSW 4.6 mph - N/A   Mostly Cloudy
11:53 AM 89.1 °F - 48.0 °F 24% 29.85 in 10.0 mi Variable 3.5 mph - N/A   Mostly Cloudy
12:53 PM 93.0 °F - 37.9 °F 15% 29.81 in 10.0 mi Variable 4.6 mph - N/A   Mostly Cloudy
1:53 PM 93.0 °F - 36.0 °F 13% 29.80 in 10.0 mi Variable 6.9 mph - N/A   Mostly Cloudy
2:53 PM 87.1 °F - 42.1 °F 21% 29.79 in 10.0 mi SW 29.9 mph 35.7 mph N/A   Mostly Cloudy
3:18 PM 87.8 °F - 42.8 °F 21% 30.05 in 10.0 mi SW 25.3 mph 39.1 mph N/A Thunderstorm Thunderstorm
3:40 PM 89.6 °F - 41.0 °F 18% 30.04 in 10.0 mi SW 25.3 mph 35.7 mph N/A   Mostly Cloudy
3:53 PM 87.1 °F - 42.1 °F 21% 29.80 in 10.0 mi SW 23.0 mph 33.4 mph N/A   Mostly Cloudy
4:53 PM 82.9 °F - 46.0 °F 27% 29.83 in 10.0 mi North 6.9 mph - N/A   Mostly Cloudy
5:53 PM 82.9 °F - 45.0 °F 26% 29.81 in 10.0 mi SSW 6.9 mph - N/A   Mostly Cloudy
6:53 PM 82.9 °F - 46.0 °F 27% 29.78 in 10.0 mi South 11.5 mph - N/A   Mostly Cloudy
7:53 PM 80.1 °F - 46.0 °F 30% 29.78 in 10.0 mi SSW 5.8 mph - N/A   Mostly Cloudy
8:53 PM 73.0 °F - 54.0 °F 51% 29.81 in 10.0 mi NNE 11.5 mph - N/A   Mostly Cloudy
9:53 PM 69.1 °F - 54.0 °F 58% 29.80 in 10.0 mi ENE 8.1 mph - N/A   Scattered Clouds
10:53 PM 66.9 °F - 55.0 °F 66% 29.80 in 10.0 mi West 5.8 mph - N/A   Scattered Clouds
11:53 PM 66.9 °F - 53.1 °F 61% 29.76 in 10.0 mi WNW 9.2 mph - N/A   Scattered Clouds